TimeMST,TemperatureF,Dew PointF,Humidity,Sea Level PressureIn,VisibilityMPH,Wind Direction,Wind SpeedMPH,Gust SpeedMPH,PrecipitationIn,Events,Conditions,WindDirDegrees,DateUTC
12:51 AM,93.0,21.0,7,29.62,10.0,West,3.5,-,N/A,,Clear,260,2013-06-20 07:51:00
1:51 AM,90.0,24.1,9,29.61,10.0,Calm,Calm,-,N/A,,Clear,0,2013-06-20 08:51:00
2:51 AM,82.9,35.1,18,29.62,10.0,East,8.1,-,N/A,,Clear,90,2013-06-20 09:51:00
3:51 AM,82.0,34.0,18,29.64,10.0,East,10.4,-,N/A,,Clear,80,2013-06-20 10:51:00
4:51 AM,80.1,33.1,18,29.65,10.0,East,6.9,-,N/A,,Clear,100,2013-06-20 11:51:00
5:51 AM,80.1,35.1,20,29.68,10.0,East,9.2,-,N/A,,Clear,100,2013-06-20 12:51:00
6:51 AM,81.0,35.1,19,29.70,10.0,East,11.5,-,N/A,,Clear,100,2013-06-20 13:51:00
7:51 AM,84.9,30.9,14,29.72,10.0,SE,11.5,-,N/A,,Clear,140,2013-06-20 14:51:00
8:51 AM,88.0,30.0,12,29.73,10.0,SE,8.1,-,N/A,,Clear,130,2013-06-20 15:51:00
9:51 AM,93.0,28.9,10,29.73,10.0,Variable,6.9,-,N/A,,Clear,0,2013-06-20 16:51:00
10:51 AM,93.9,26.1,9,29.73,10.0,ENE,3.5,-,N/A,,Clear,60,2013-06-20 17:51:00
11:51 AM,97.0,25.0,8,29.72,10.0,Calm,Calm,-,N/A,,Clear,0,2013-06-20 18:51:00
12:51 PM,98.1,26.1,8,29.70,10.0,Variable,3.5,-,N/A,,Clear,0,2013-06-20 19:51:00
1:51 PM,100.0,24.1,7,29.68,10.0,NNE,5.8,-,N/A,,Clear,20,2013-06-20 20:51:00
2:51 PM,102.0,24.1,6,29.66,10.0,Variable,5.8,-,N/A,,Clear,0,2013-06-20 21:51:00
3:51 PM,104.0,24.1,6,29.64,10.0,Calm,Calm,-,N/A,,Clear,0,2013-06-20 22:51:00
4:51 PM,106.0,24.1,6,29.62,10.0,Variable,5.8,-,N/A,,Clear,0,2013-06-20 23:51:00
5:51 PM,102.9,24.1,6,29.61,10.0,Variable,4.6,-,N/A,,Clear,0,2013-06-21 00:51:00
6:51 PM,102.0,28.0,7,29.61,10.0,North,6.9,-,N/A,,Clear,350,2013-06-21 01:51:00
7:51 PM,100.9,28.9,8,29.61,10.0,North,6.9,-,N/A,,Clear,350,2013-06-21 02:51:00
8:51 PM,98.1,25.0,7,29.63,10.0,WSW,6.9,-,N/A,,Clear,250,2013-06-21 03:51:00
9:51 PM,95.0,24.1,8,29.65,10.0,SW,6.9,-,N/A,,Clear,230,2013-06-21 04:51:00
10:51 PM,93.0,24.1,8,29.66,10.0,WSW,5.8,-,N/A,,Clear,240,2013-06-21 05:51:00
11:51 PM,93.9,23.0,8,29.66,10.0,NNE,4.6,-,N/A,,Clear,30,2013-06-21 06:51:00